Location: Dreilärchen
(47.9312°N, 8.6113°E)
Time: 23:11:07
(UTC+00:00)

Resurs 1-4 Rocket - Pass Details

Date: 26 May 2022
Orbit: 800 x 814 km, 98.7° (Epoch: 26 June)

Event Time Altitude Azimuth Distance (km) Brightness Sun altitude
Rises 01:21:01 0° 13° (NNE) 3,322 6.8 -16.0°
Reaches altitude 10° 01:23:21 10° 12° (NNE) 2,388 5.7 -15.8°
Maximum altitude 01:28:38 77° 287° (WNW) 828 2.1 -15.4°
Enters shadow 01:31:58 23° 205° (SSW) 1,642 3.1 -15.1°
